Regional Weather Roundup
Issued by NWS

Home | Current Version | Previous Version | Text Only | Print | Product List | Glossary Off
Versions: 1 2 3 4 5 6 7 8 9 10 11 12 13 14 15 16 17 18 19 20 21 22 23 24 25 26 27 28 29 30 31 32 33 34 35 36 37 38 39 40 41 42 43 44 45 46 47 48 49 50

765
ASUS43 KMKX 240221
RWRWI

WISCONSIN REGIONAL WEATHER ROUNDUP
NATIONAL WEATHER SERVICE MILWAUKEE/SULLIVAN WI
900 PM CDT TUE AUG 23 2016

NOTE: "FAIR" INDICATES FEW OR NO CLOUDS BELOW 12,000 FEET WITH NO
SIGNIFICANT WEATHER AND/OR OBSTRUCTIONS TO VISIBILITY.

WIZ001-002-006>008-014>016-023>028-240300-
NORTHWEST WISCONSIN

CITY           SKY/WX    TMP DP  RH WIND       PRES   REMARKS
SUPERIOR ARPT  PTCLDY    74  67  78 S9        29.86R
ASHLAND        PTCLDY    74  64  71 S10       29.91S
HAYWARD        CLOUDY    72  65  78 S6        29.93S
SIREN          CLOUDY    73  63  69 SE6       29.89S
CUMBERLAND     CLOUDY    68  63  83 SE5       29.92R
RICE LAKE      CLOUDY    72  64  75 SE7       29.94R
CHETEK         NOT AVBL
LADYSMITH      CLOUDY    71  64  77 SE6       29.97S
EAU CLAIRE     CLOUDY    74  63  68 SE9       29.91F
MENOMONIE      LGT RAIN  71  66  87 E5        29.91R
NEW RICHMOND   LGT RAIN  71  63  74 SE8       29.90R
OSCEOLA        CLOUDY    73  64  72 SE10G16   29.90R
$$

WIZ003>005-009-010-017-018-240300-
NORTH CENTRAL WISCONSIN

CITY           SKY/WX    TMP DP  RH WIND       PRES   REMARKS
MANITOWISH WTR NOT AVBL
ARBOR VITAE    PTCLDY    72  65  78 S7        30.01S
WOODRUFF       PTCLDY    72  65  78 S7        30.01S
RHINELANDER    PTCLDY    68  64  87 SE5       30.03F
EAGLE RIVER    CLOUDY    67  60  77 CALM      30.02F
LAND O LAKES   PTCLDY    67  61  80 SE3       30.03S
PHILLIPS       CLOUDY    69  64  83 SE6       29.98S
TOMAHAWK       PTCLDY    64  61  88 CALM      30.01F
MEDFORD        PTCLDY    67  64  90 SE8       29.99F
MERRILL        PTCLDY    68  64  88 SE5       30.01F
$$

WIZ029-030-035-036-043>047-240300-
CENTRAL WISCONSIN

CITY           SKY/WX    TMP DP  RH WIND       PRES   REMARKS
WAUSAU         PTCLDY    69  62  78 SE7       30.00S
MOSINEE        PTCLDY    66  63  88 SE5       30.03S
MARSHFIELD     CLOUDY    70  61  73 SE7       29.99F
STEVENS POINT  PTCLDY    70  61  73 S6        30.03S
WAUPACA        PTCLDY    71  62  73 SE5       30.04R
WAUTOMA        PTCLDY    69  62  78 SE5       30.04R
WISC RAPIDS    CLOUDY    71  63  75 S7        30.02F
CAMP DOUGLAS   MOCLDY    72  64  78 SE8       29.99F
$$

WIZ011>013-019>022-031-037>040-048>050-240300-
NORTHEAST WISCONSIN

CITY           SKY/WX    TMP DP  RH WIND       PRES   REMARKS
ANTIGO         CLOUDY    64  61  92 SE5       30.05S
SHAWANO        PTCLDY    72  62  71 S6        30.04S
OCONTO         NOT AVBL
STURGEON BAY   PTCLDY    69  62  78 S14       30.07S
GREEN BAY      CLEAR     67  64  90 SE8       30.05S
MANITOWOC      CLEAR     69  62  78 S13       30.08S
APPLETON       PTCLDY    72  59  64 S8        30.04S
CLINTONVILLE   CLOUDY    68  61  77 S6        30.03S
OSHKOSH        CLEAR     67  60  78 S6        30.05S
$$

WIZ032>034-041-042-053>061-240300-
SOUTHWEST WISCONSIN

CITY           SKY/WX    TMP DP  RH WIND       PRES   REMARKS
LA CROSSE      LGT RAIN  76  73  91 S18       29.93F
SPARTA         CLOUDY    73  65  74 S12       29.98S
VIROQUA        CLOUDY    72  65  79 SE14      29.98F
BOSCOBEL       CLOUDY    76  66  71 VRB3      29.98F
PRAIRIE DU CHI CLOUDY    75  65  70 SE10G16   29.96S
PLATTEVILLE    CLOUDY    73  69  85 S10G17    30.02S
$$

WIZ056-057-062-063-064-067-068-240300-
SOUTH CENTRAL WISCONSIN

CITY           SKY/WX    TMP DP  RH WIND       PRES   REMARKS
REEDSBURG      NOT AVBL
BARABOO/DELLS  CLOUDY    72  61  70 S9        30.04R
LONE ROCK      CLOUDY    74  65  73 SE9       30.01S
MINERAL POINT  CLOUDY    73  68  83 SE9       30.03R
MADISON        CLOUDY    75  63  66 S13G21    30.04S
MIDDLETON      CLOUDY    74  64  69 SE9       30.05R
WATERTOWN      MOCLDY    69  63  80 SE5       30.06R
MONROE         CLOUDY    72  64  78 S14       30.05S
JANESVILLE     CLOUDY    73  63  68 S9        30.05S
$$

WIZ051-052-058>065-066-070>072-240300-
SOUTHEAST WISCONSIN

CITY           SKY/WX    TMP DP  RH WIND       PRES   REMARKS
MILWAUKEE      PTCLDY    74  59  59 S8        30.09S
WAUKESHA       CLEAR     70  59  68 S5        30.10S
MILWAUKEE/TIMM CLEAR     73  55  53 S6        30.09S
RACINE         CLEAR     73  60  63 S10       30.11F
BURLINGTON     PTCLDY    68  59  72 SE6       30.09R
KENOSHA        CLEAR     73  60  63 S9        30.09F
FOND DU LAC    CLEAR     66  61  84 S7        30.06S
SHEBOYGAN      CLEAR     68  62  81 S7        30.08S
WEST BEND      CLEAR     70  59  68 S5        30.08S
JUNEAU         CLEAR     69  62  78 SE9       30.07S
$$

LSZ147-162-240300-
LAKE SUPERIOR

STATION/POSITION TIME  TEMP    WIND        PRES    WAVE
                       AIR SEA DIR/SP/G            HT/PER
                 (UTC) (F)     (DEG/KT/KT) (MB)    (FT/S)
W MID LAKE BUOY  0150   72 67  190/ 12/ 14 1011.5F   1/ 3
DEVILS ISLAND    0200   76     190/  9/ 12 1011.8R
PORT WING        0140   77     170/ 10/ 14 1011.5F
SAXON HARBOR     0000   79     170/  4/  9 1013.2
$$

LMZ867-665-643>646-240300-
LAKE MICHIGAN

STATION/POSITION TIME  TEMP    WIND        PRES    WAVE
                       AIR SEA DIR/SP/G            HT/PER
                 (UTC) (F)     (DEG/KT/KT) (MB)    (FT/S)
CHAMBERS ISLAND  0100   72     150/  5/ 13 1017.3F
S GREEN BAY BUOY 0100   73 74  170/ 16/ 17 1016.8F
N MID LAKE BUOY  0150   72 71  190/ 19/ 23 1017.5S   6/ 7
NORTHPORT PIER   0100   70     170/  9/ 16 1017.9F
SISTER BAY       0107   72     190/ 17/ 19   N/A
KEWAUNEE LAKESHO 0100   67                 1017.9F
SHEBOYGAN LAKESH 0200   67     180/ 16/ 17 1018.0R
PORT WASHINGTON  0100   65     200/  7/ 12 1019.3
ATWATER BUOY     0200   65 54  160/ 10/ 12   N/A
MILWAUKEE LAKESH 0110   72     160/  9/ 10   N/A
S MID LAKE BUOY  0150   76 75  170/ 16/ 19 1019.2F   3/ 5
KENOSHA   LAKESH 0200   72     180/ 13/ 16 1018.6F
$$

TC  - TEMPERATURE IN CELSIUS
VSB - VISIBILITY IN STATUTE MILES
WCI - WIND CHILL INDEX
HX  - HEAT INDEX





USA.gov is the U.S. government's official web portal to all federal, state and local government web resources and services.